Home   Weather   Raleigh   Past weeks

Flag for USA Past Weather in Raleigh, North Carolina, USA — Yesterday and Last 2 Weeks

Now
43 °F

Mostly cloudy.


Feels Like: 43 °F
Forecast: 38 / 49 °F
Wind: No wind

Location: Raleigh-Durham International Airport

Current Time: Dec 4, 2016 at 1:15:38 am

Latest Report: Dec 3, 2016 at 11:51 pm


Visibility: 10 mi

Pressure: 30.29 "Hg

Humidity: 62%

Dew Point: 31 °F

Location of RaleighLocation

Past Weather in Raleigh — Graph

°F

Raleigh Temperature Yesterday

Maximum temperature yesterday: 53 °F (at 2:51 pm)
Minimum temperature yesterday: 34 °F (at 6:51 am)
Average temperature yesterday: 45 °F

High & Low Weather Summary for the Past Weeks

 TemperatureHumidityPressure
High76 °F (Nov 19, 12:51 pm)100% (Nov 24, 9:51 pm)30.37 "Hg (Nov 24, 9:51 pm)
Low28 °F (Nov 21, 5:51 am)15% (Nov 22, 2:51 pm)29.68 "Hg (Dec 1, 12:51 am)
Average51 °F61%30.10 "Hg
* Reported Nov 18 11:51 pm — Dec 3 11:51 pm, Raleigh, Weather by CustomWeather, © 2016

Note: Actual official high and low records may vary slightly from our data, if they occured in-between our weather recording intervals... More about our weather records

Advertising

Raleigh Weather History for the Previous 24 Hours

Scroll right to see more
 ConditionsComfort  
Time TempWeatherWind HumidityBarometerVisibility
11:51 pm
Sat, Dec 3
43 °FMostly cloudy.No wind62%30.29 "Hg10 mi
10:51 pm45 °FOvercast.No wind58%30.29 "Hg10 mi
9:51 pm46 °FOvercast.3 mph51%30.29 "Hg10 mi
8:51 pm46 °FOvercast.No wind54%30.27 "Hg10 mi
7:51 pm46 °FMostly cloudy.No wind54%30.26 "Hg10 mi
6:51 pm45 °FOvercast.No wind53%30.25 "Hg10 mi
5:51 pm48 °FMostly cloudy.3 mph46%30.24 "Hg10 mi
4:51 pm49 °FOvercast.5 mph43%30.24 "Hg10 mi
3:51 pm52 °FPartly sunny.No wind38%30.24 "Hg10 mi
2:51 pm53 °FPartly sunny.6 mph35%30.24 "Hg10 mi
1:51 pm52 °FPartly sunny.3 mph35%30.22 "Hg10 mi
12:51 pm51 °FScattered clouds.7 mph38%30.24 "Hg10 mi
11:51 am50 °FScattered clouds.5 mph39%30.28 "Hg10 mi
10:51 am48 °FScattered clouds.6 mph44%30.30 "Hg10 mi
9:51 am46 °FScattered clouds.6 mph48%30.31 "Hg10 mi
8:51 am43 °FScattered clouds.6 mph56%30.29 "Hg10 mi
7:51 am36 °FScattered clouds.No wind75%30.27 "Hg10 mi
6:51 am34 °FPassing clouds.No wind76%30.26 "Hg10 mi
5:51 am36 °FPassing clouds.No wind73%30.24 "Hg10 mi
4:51 am40 °FPassing clouds.No wind63%30.23 "Hg10 mi
3:51 am42 °FQuite cool.N/A92%30.23 "HgN/A
2:51 am43 °FPassing clouds.7 mph58%30.22 "Hg10 mi
1:51 am45 °FPassing clouds.5 mph53%30.19 "Hg10 mi
Weather by CustomWeather, © 2016

See weather overviewHow to use our weather pages